Location: Camerons Lookout
(40.9833°S, 175.9333°E)
Time: 21:58:48
(UTC+00:00)

SPOT 3 Rocket - Pass Details

Date: 14 January 2026
Orbit: 775 x 790 km, 98.5° (Epoch: 17 February)

Event Time Altitude Azimuth Distance (km) Brightness Sun altitude
Rises 10:14:23 0° 162° (SSE) 3,323 7.4 -20.7°
Reaches altitude 10° 10:16:48 10° 157° (SSE) 2,385 6.5 -21.0°
Maximum altitude 10:21:56 52° 80° (E) 985 3.8 -21.5°
Enters shadow 10:22:48 47° 47° (NE) 1,049 3.7 -21.6°
